SIA377 LEBL-LIMC

Flight info

Callsign SIA377
Flight time 0h 57m
Altitude 30000
Route AGENA DCT BODEQ DCT LUMAS DCT UNANA DCT STP DCT RAPED DCT PIGOS DCT EKSID DCT NOSTA DCT EGHIN DCT ANAKI/N0403F180 P860 DEVOX
Aircraft A359/H-SDE2E3GHIJ1J3J4J5LM1ORWXYZ/LB1D1

Departure

Time 2026-05-06 16:33
Airport Josep Tarradellas Barcelona-El Prat Airport (LEBL)

Arrival

Time 2026-05-06 17:30
Airport Milan Malpensa International Airport (LIMC)
Time Latitude Longitude Altitude Speed Heading
2026-05-06 16:05 41.29239 2.08220 25 ft 0 kts 203°
2026-05-06 16:24 41.29251 2.08226 29 ft 4 kts 203°
2026-05-06 16:25 41.29275 2.08241 31 ft 4 kts 203°
2026-05-06 16:25 41.29296 2.08253 31 ft 4 kts 198°
2026-05-06 16:25 41.29320 2.08257 31 ft 4 kts 157°
2026-05-06 16:25 41.29336 2.08237 31 ft 4 kts 91°
2026-05-06 16:26 41.29329 2.08206 31 ft 4 kts 65°
2026-05-06 16:26 41.29322 2.08185 31 ft 0 kts 65°
2026-05-06 16:28 41.29330 2.08209 31 ft 9 kts 65°
2026-05-06 16:28 41.29362 2.08323 30 ft 13 kts 93°
2026-05-06 16:29 41.29302 2.08417 26 ft 14 kts 151°
2026-05-06 16:29 41.29199 2.08479 31 ft 20 kts 156°
2026-05-06 16:29 41.29051 2.08567 26 ft 26 kts 155°
2026-05-06 16:29 41.28895 2.08665 27 ft 15 kts 154°
2026-05-06 16:30 41.28878 2.08774 26 ft 14 kts 68°
2026-05-06 16:30 41.28907 2.08861 25 ft 17 kts 66°
2026-05-06 16:30 41.28990 2.09102 27 ft 25 kts 65°
2026-05-06 16:30 41.29062 2.09310 27 ft 27 kts 66°
2026-05-06 16:31 41.29144 2.09546 26 ft 29 kts 65°
2026-05-06 16:31 41.29231 2.09804 25 ft 32 kts 65°
2026-05-06 16:31 41.29313 2.10021 26 ft 21 kts 65°
2026-05-06 16:31 41.29294 2.10195 23 ft 20 kts 108°
2026-05-06 16:32 41.29244 2.10305 22 ft 8 kts 155°
2026-05-06 16:32 41.29211 2.10289 24 ft 4 kts 234°
2026-05-06 16:32 41.29193 2.10243 23 ft 9 kts 245°
2026-05-06 16:32 41.29082 2.09920 28 ft 78 kts 245°
2026-05-06 16:33 41.28753 2.08962 31 ft 148 kts 245°
2026-05-06 16:33 41.28306 2.07600 640 ft 162 kts 244°
2026-05-06 16:33 41.27858 2.06240 1627 ft 157 kts 243°
2026-05-06 16:34 41.25824 2.04908 2725 ft 198 kts 171°
2026-05-06 16:34 41.24447 2.05417 3364 ft 213 kts 165°
2026-05-06 16:34 41.22943 2.05827 3961 ft 228 kts 176°
2026-05-06 16:34 41.21361 2.05870 4791 ft 228 kts 186°
2026-05-06 16:35 41.19768 2.05752 5703 ft 230 kts 186°
2026-05-06 16:35 41.18165 2.05605 6610 ft 233 kts 186°
2026-05-06 16:35 41.16647 2.05533 7368 ft 241 kts 184°
2026-05-06 16:35 41.14940 2.05492 8157 ft 250 kts 184°
2026-05-06 16:36 41.13198 2.05485 8996 ft 261 kts 179°
2026-05-06 16:36 41.11356 2.06073 9595 ft 285 kts 156°
2026-05-06 16:36 41.10006 2.07506 10261 ft 298 kts 129°
2026-05-06 16:36 41.09123 2.10078 10732 ft 322 kts 100°
2026-05-06 16:37 41.09253 2.13123 11153 ft 344 kts 72°
2026-05-06 16:37 41.10333 2.16000 11837 ft 354 kts 57°
2026-05-06 16:37 41.11597 2.18852 12685 ft 362 kts 59°
2026-05-06 16:37 41.12790 2.21835 13578 ft 369 kts 62°
2026-05-06 16:38 41.13925 2.24910 14354 ft 376 kts 63°
2026-05-06 16:38 41.15044 2.28089 15040 ft 385 kts 64°
2026-05-06 16:38 41.16145 2.31299 15675 ft 394 kts 65°
2026-05-06 16:38 41.17279 2.34656 16344 ft 403 kts 65°
2026-05-06 16:39 41.18419 2.38061 17029 ft 410 kts 65°
2026-05-06 16:39 41.19579 2.41545 17729 ft 419 kts 65°
2026-05-06 16:39 41.20765 2.45114 18389 ft 427 kts 66°
2026-05-06 16:39 41.21970 2.48750 19050 ft 433 kts 66°
2026-05-06 16:40 41.23188 2.52435 19762 ft 438 kts 66°
2026-05-06 16:40 41.24418 2.56159 20486 ft 444 kts 66°
2026-05-06 16:40 41.25668 2.59951 21187 ft 450 kts 66°
2026-05-06 16:40 41.26903 2.63701 21871 ft 455 kts 66°
2026-05-06 16:41 41.28177 2.67576 22543 ft 461 kts 66°
2026-05-06 16:41 41.29467 2.71507 23215 ft 467 kts 66°
2026-05-06 16:41 41.30773 2.75491 23833 ft 472 kts 66°
2026-05-06 16:41 41.32093 2.79521 24430 ft 478 kts 67°
2026-05-06 16:42 41.33421 2.83584 25002 ft 483 kts 67°
2026-05-06 16:42 41.34768 2.87711 25555 ft 488 kts 67°
2026-05-06 16:42 41.36122 2.91866 26155 ft 492 kts 67°
2026-05-06 16:42 41.37470 2.96010 26728 ft 497 kts 67°
2026-05-06 16:43 41.38847 3.00247 27296 ft 501 kts 67°
2026-05-06 16:43 41.40236 3.04528 27856 ft 506 kts 67°
2026-05-06 16:43 41.41637 3.08856 28357 ft 511 kts 68°
2026-05-06 16:43 41.43051 3.13229 28856 ft 517 kts 68°
2026-05-06 16:44 41.44476 3.17641 29394 ft 521 kts 68°
2026-05-06 16:44 41.45913 3.22100 29834 ft 526 kts 68°
2026-05-06 16:44 41.47362 3.26602 29942 ft 535 kts 68°
2026-05-06 16:44 41.48826 3.31164 29938 ft 547 kts 68°
2026-05-06 16:45 41.50325 3.35835 29929 ft 548 kts 68°
2026-05-06 16:45 41.53418 3.45098 29935 ft 546 kts 62°
2026-05-06 16:46 41.57437 3.53877 29939 ft 560 kts 56°
2026-05-06 16:46 41.61788 3.62453 29939 ft 562 kts 54°
2026-05-06 16:47 41.66198 3.71062 29936 ft 561 kts 55°
2026-05-06 16:47 41.70576 3.79722 29936 ft 561 kts 55°
2026-05-06 16:48 41.74929 3.88415 29939 ft 563 kts 56°
2026-05-06 16:48 41.79244 3.97072 29942 ft 563 kts 56°
2026-05-06 16:49 41.83590 4.05814 29944 ft 563 kts 56°
2026-05-06 16:49 41.87928 4.14559 29944 ft 563 kts 56°
2026-05-06 16:50 41.92262 4.23322 29952 ft 563 kts 56°
2026-05-06 16:50 41.96559 4.32034 29935 ft 563 kts 56°
2026-05-06 16:51 42.00873 4.40807 29943 ft 563 kts 56°
2026-05-06 16:51 42.05185 4.49600 29943 ft 563 kts 57°
2026-05-06 16:52 42.09486 4.58398 29914 ft 563 kts 57°
2026-05-06 16:52 42.13791 4.67229 29937 ft 564 kts 57°
2026-05-06 16:53 42.18059 4.76010 29936 ft 564 kts 57°
2026-05-06 16:53 42.22354 4.84872 29936 ft 564 kts 57°
2026-05-06 16:54 42.26637 4.93737 29936 ft 564 kts 57°
2026-05-06 16:54 42.30916 5.02618 29946 ft 565 kts 57°
2026-05-06 16:55 42.35168 5.11471 29931 ft 565 kts 57°
2026-05-06 16:55 42.39442 5.20393 29927 ft 565 kts 58°
2026-05-06 16:56 42.43706 5.29325 29925 ft 565 kts 58°
2026-05-06 16:56 42.47968 5.38276 29924 ft 566 kts 58°
2026-05-06 16:57 42.52218 5.47230 29920 ft 566 kts 58°
2026-05-06 16:57 42.56441 5.56155 29919 ft 566 kts 58°
2026-05-06 16:58 42.60680 5.65139 29921 ft 566 kts 58°
2026-05-06 16:58 42.64918 5.74148 29907 ft 566 kts 58°
2026-05-06 16:59 42.69155 5.83183 29916 ft 567 kts 59°
2026-05-06 16:59 42.73385 5.92230 29914 ft 567 kts 59°
2026-05-06 17:00 42.77576 6.01222 29912 ft 567 kts 59°
2026-05-06 17:00 42.81794 6.10297 29889 ft 567 kts 59°
2026-05-06 17:01 42.86489 6.18910 29919 ft 568 kts 45°
2026-05-06 17:01 42.92336 6.26137 29912 ft 567 kts 39°
2026-05-06 17:02 42.98382 6.33061 29908 ft 567 kts 38°
2026-05-06 17:02 43.04412 6.39908 29905 ft 567 kts 39°
2026-05-06 17:03 43.10457 6.46843 29863 ft 567 kts 39°
2026-05-06 17:03 43.16493 6.53823 29879 ft 568 kts 39°
2026-05-06 17:04 43.22268 6.61185 29874 ft 569 kts 50°
2026-05-06 17:04 43.27078 6.69720 29860 ft 568 kts 54°
2026-05-06 17:05 43.31712 6.78494 29853 ft 568 kts 56°
2026-05-06 17:05 43.36317 6.87328 29836 ft 568 kts 56°
2026-05-06 17:06 43.40929 6.96149 29847 ft 569 kts 56°
2026-05-06 17:06 43.45520 7.04932 29854 ft 569 kts 56°
2026-05-06 17:07 43.50140 7.13789 29830 ft 570 kts 56°
2026-05-06 17:07 43.54757 7.22667 29830 ft 570 kts 56°
2026-05-06 17:08 43.59365 7.31551 29830 ft 570 kts 56°
2026-05-06 17:08 43.64224 7.40185 29774 ft 570 kts 46°
2026-05-06 17:08 43.67029 7.43947 29489 ft 570 kts 43°
2026-05-06 17:09 43.69959 7.47645 29206 ft 571 kts 41°
2026-05-06 17:09 43.72906 7.51321 28921 ft 571 kts 41°
2026-05-06 17:09 43.75852 7.54995 28642 ft 569 kts 41°
2026-05-06 17:09 43.78788 7.58660 28318 ft 567 kts 41°
2026-05-06 17:10 43.81709 7.62313 27831 ft 565 kts 42°
2026-05-06 17:10 43.84612 7.65950 27285 ft 560 kts 41°
2026-05-06 17:10 43.87488 7.69557 26788 ft 556 kts 41°
2026-05-06 17:10 43.90343 7.73142 26268 ft 552 kts 41°
2026-05-06 17:11 43.93138 7.76657 25760 ft 547 kts 41°
2026-05-06 17:11 43.95944 7.80192 25313 ft 543 kts 41°
2026-05-06 17:11 43.98732 7.83707 24821 ft 540 kts 41°
2026-05-06 17:11 44.01498 7.87199 24349 ft 535 kts 41°
2026-05-06 17:12 44.04237 7.90661 23876 ft 531 kts 41°
2026-05-06 17:12 44.06962 7.94110 23420 ft 528 kts 41°
2026-05-06 17:12 44.09668 7.97541 22826 ft 521 kts 41°
2026-05-06 17:12 44.12317 8.00903 22279 ft 511 kts 41°
2026-05-06 17:13 44.14882 8.04161 21813 ft 501 kts 41°
2026-05-06 17:13 44.17436 8.07409 21267 ft 493 kts 41°
2026-05-06 17:13 44.19946 8.10606 20750 ft 485 kts 41°
2026-05-06 17:13 44.22415 8.13755 20227 ft 479 kts 41°
2026-05-06 17:14 44.24857 8.16874 19749 ft 473 kts 41°
2026-05-06 17:14 44.27266 8.19954 19249 ft 467 kts 41°
2026-05-06 17:14 44.29710 8.22899 18770 ft 461 kts 35°
2026-05-06 17:14 44.32422 8.25173 18288 ft 451 kts 22°
2026-05-06 17:15 44.35247 8.26845 17784 ft 443 kts 19°
2026-05-06 17:15 44.38105 8.28380 17278 ft 437 kts 18°
2026-05-06 17:15 44.40941 8.29863 16774 ft 433 kts 18°
2026-05-06 17:15 44.43756 8.31322 16242 ft 429 kts 18°
2026-05-06 17:16 44.46548 8.32763 15745 ft 426 kts 18°
2026-05-06 17:16 44.49315 8.34190 15227 ft 422 kts 18°
2026-05-06 17:16 44.52060 8.35605 14742 ft 420 kts 18°
2026-05-06 17:16 44.54762 8.36996 14263 ft 418 kts 18°
2026-05-06 17:17 44.57486 8.38401 13776 ft 416 kts 18°
2026-05-06 17:17 44.60191 8.39797 13263 ft 413 kts 18°
2026-05-06 17:17 44.62877 8.41184 12735 ft 410 kts 19°
2026-05-06 17:17 44.65540 8.42560 12219 ft 406 kts 18°
2026-05-06 17:18 44.68181 8.43928 11697 ft 404 kts 18°
2026-05-06 17:18 44.70806 8.45290 11192 ft 400 kts 19°
2026-05-06 17:18 44.73407 8.46639 10701 ft 397 kts 18°
2026-05-06 17:18 44.75986 8.47977 10214 ft 394 kts 19°
2026-05-06 17:19 44.78543 8.49305 9730 ft 390 kts 19°
2026-05-06 17:19 44.81048 8.50608 9214 ft 388 kts 19°
2026-05-06 17:19 44.83546 8.51907 8704 ft 384 kts 19°
2026-05-06 17:19 44.86046 8.53209 8221 ft 382 kts 19°
2026-05-06 17:20 44.88528 8.54502 7935 ft 379 kts 20°
2026-05-06 17:20 44.90985 8.55785 7659 ft 374 kts 20°
2026-05-06 17:20 44.93419 8.57057 7387 ft 371 kts 20°
2026-05-06 17:20 44.95834 8.58319 7115 ft 369 kts 20°
2026-05-06 17:21 44.98236 8.59576 6956 ft 368 kts 20°
2026-05-06 17:21 45.00636 8.60833 6795 ft 367 kts 20°
2026-05-06 17:21 45.02997 8.62071 6671 ft 366 kts 20°
2026-05-06 17:21 45.05373 8.63318 6517 ft 360 kts 20°
2026-05-06 17:22 45.07671 8.64524 6385 ft 345 kts 20°
2026-05-06 17:22 45.09905 8.65699 6276 ft 341 kts 21°
2026-05-06 17:22 45.12104 8.66856 6149 ft 340 kts 21°
2026-05-06 17:22 45.14261 8.67993 6020 ft 340 kts 21°
2026-05-06 17:23 45.16471 8.69158 5905 ft 339 kts 21°
2026-05-06 17:23 45.18648 8.70306 5753 ft 325 kts 21°
2026-05-06 17:23 45.20217 8.71134 5718 ft 311 kts 21°
2026-05-06 17:23 45.22106 8.72130 5595 ft 296 kts 21°
2026-05-06 17:24 45.23994 8.73128 5461 ft 285 kts 21°
2026-05-06 17:24 45.25848 8.74110 5342 ft 284 kts 21°
2026-05-06 17:24 45.27700 8.75090 5223 ft 285 kts 21°
2026-05-06 17:24 45.29554 8.76073 5095 ft 284 kts 21°
2026-05-06 17:25 45.31406 8.77055 4965 ft 284 kts 21°
2026-05-06 17:25 45.33256 8.78037 4849 ft 284 kts 21°
2026-05-06 17:25 45.35081 8.79005 4715 ft 284 kts 21°
2026-05-06 17:25 45.36959 8.79846 4599 ft 283 kts 11°
2026-05-06 17:26 45.38898 8.80024 4463 ft 274 kts 354°
2026-05-06 17:26 45.40736 8.79575 4323 ft 262 kts 345°
2026-05-06 17:26 45.42481 8.79012 4183 ft 252 kts 347°
2026-05-06 17:26 45.44185 8.78522 4024 ft 248 kts 348°
2026-05-06 17:27 45.45865 8.78059 3868 ft 244 kts 348°
2026-05-06 17:27 45.47528 8.77619 3601 ft 242 kts 348°
2026-05-06 17:27 45.49158 8.77175 3265 ft 241 kts 348°
2026-05-06 17:27 45.50802 8.76717 2926 ft 240 kts 349°
2026-05-06 17:28 45.52430 8.76270 2590 ft 234 kts 349°
2026-05-06 17:28 45.53971 8.75845 2294 ft 218 kts 349°
2026-05-06 17:28 45.55408 8.75449 2015 ft 203 kts 349°
2026-05-06 17:28 45.56737 8.75083 1742 ft 187 kts 349°
2026-05-06 17:29 45.57978 8.74740 1474 ft 175 kts 350°
2026-05-06 17:29 45.59116 8.74430 1270 ft 162 kts 349°
2026-05-06 17:29 45.60196 8.74140 1020 ft 153 kts 351°
2026-05-06 17:29 45.61202 8.73861 832 ft 142 kts 348°
2026-05-06 17:30 45.62138 8.73587 744 ft 128 kts 349°
2026-05-06 17:30 45.62745 8.73425 743 ft 48 kts 349°
2026-05-06 17:30 45.63034 8.73332 741 ft 41 kts 341°
2026-05-06 17:30 45.63245 8.73096 743 ft 37 kts 306°
2026-05-06 17:31 45.63385 8.72794 743 ft 35 kts 297°
2026-05-06 17:31 45.63388 8.72494 743 ft 29 kts 258°
2026-05-06 17:31 45.63347 8.72207 746 ft 31 kts 258°
2026-05-06 17:31 45.63316 8.71998 746 ft 7 kts 257°
2026-05-06 17:32 45.63303 8.71904 744 ft 12 kts 259°
2026-05-06 17:32 45.63288 8.71771 743 ft 15 kts 261°
2026-05-06 17:32 45.63270 8.71611 744 ft 18 kts 258°
2026-05-06 17:32 45.63243 8.71419 744 ft 21 kts 258°
2026-05-06 17:33 45.63219 8.71341 745 ft 4 kts 201°
2026-05-06 17:33 45.63174 8.71345 745 ft 8 kts 171°
2026-05-06 17:33 45.63149 8.71352 743 ft 2 kts 168°
2026-05-06 17:33 45.63143 8.71354 743 ft 0 kts 168°